Time,TemperatureF,DewpointF,PressureIn,WindDirection,WindDirectionDegrees,WindSpeedMPH,WindSpeedGustMPH,Humidity,HourlyPrecipIn,Conditions,Clouds,dailyrainin,SoftwareType,DateUTC
2013-02-04 00:20:00,34.5,20.9,30.11,North,0,0.0,0.0,57,0.00,,SKC,0.00,VWS V14.00,2013-02-04 05:20:00,
2013-02-04 00:40:00,34.0,20.4,30.11,North,0,0.0,0.0,57,0.00,,SKC,0.00,VWS V14.00,2013-02-04 05:40:00,
2013-02-04 01:00:00,33.8,20.6,30.11,North,0,0.0,0.0,58,0.00,,SKC,0.00,VWS V14.00,2013-02-04 06:00:00,
2013-02-04 01:20:00,33.3,20.5,30.10,NNE,22,0.0,0.0,59,0.00,,SKC,0.00,VWS V14.00,2013-02-04 06:20:00,
2013-02-04 01:40:00,32.9,20.5,30.09,NE,45,0.0,0.0,60,0.00,,SKC,0.00,VWS V14.00,2013-02-04 06:40:00,
2013-02-04 02:00:00,32.9,20.5,30.09,NE,45,0.0,0.0,60,0.00,,SKC,0.00,VWS V14.00,2013-02-04 07:00:00,
2013-02-04 02:20:00,32.7,20.8,30.10,NE,45,0.0,0.0,61,0.00,,SKC,0.00,VWS V14.00,2013-02-04 07:20:00,
2013-02-04 02:40:00,32.7,20.8,30.08,NE,45,0.0,0.0,61,0.00,,SKC,0.00,VWS V14.00,2013-02-04 07:40:00,
2013-02-04 03:00:00,32.4,20.4,30.08,NE,45,0.0,0.0,61,0.00,,SKC,0.00,VWS V14.00,2013-02-04 08:00:00,
2013-02-04 03:20:00,32.2,20.6,30.07,NE,45,0.0,0.0,62,0.00,,SKC,0.00,VWS V14.00,2013-02-04 08:20:00,
2013-02-04 03:40:00,31.8,20.3,30.06,NE,45,0.0,0.0,62,0.00,,SKC,0.00,VWS V14.00,2013-02-04 08:40:00,
2013-02-04 04:00:00,31.6,20.5,30.06,NE,45,0.0,0.0,63,0.00,,SKC,0.00,VWS V14.00,2013-02-04 09:00:00,
2013-02-04 04:20:00,31.5,20.3,30.06,NE,45,0.0,0.0,63,0.00,,SKC,0.00,VWS V14.00,2013-02-04 09:20:00,
2013-02-04 04:40:00,31.5,21.1,30.05,NE,45,0.0,0.0,65,0.00,,SKC,0.00,VWS V14.00,2013-02-04 09:40:00,
2013-02-04 05:00:00,31.6,21.2,30.06,NE,45,0.0,0.0,65,0.00,,SKC,0.00,VWS V14.00,2013-02-04 10:00:00,
2013-02-04 05:20:00,31.8,21.4,30.06,NE,45,0.0,0.0,65,0.00,,SKC,0.00,VWS V14.00,2013-02-04 10:20:00,
2013-02-04 05:40:00,31.5,21.1,30.06,NE,45,0.0,0.0,65,0.00,,SKC,0.00,VWS V14.00,2013-02-04 10:40:00,
2013-02-04 06:00:00,30.9,20.5,30.06,NE,45,0.0,0.0,65,0.00,,SKC,0.00,VWS V14.00,2013-02-04 11:00:00,
2013-02-04 06:20:00,30.7,20.4,30.07,NE,45,0.0,0.0,65,0.00,,SKC,0.00,VWS V14.00,2013-02-04 11:20:00,
2013-02-04 06:40:00,30.7,20.4,30.07,NNE,22,0.0,0.0,65,0.00,,SKC,0.00,VWS V14.00,2013-02-04 11:40:00,
2013-02-04 07:00:00,30.6,20.6,30.07,NNE,22,0.0,0.0,66,0.00,,SKC,0.00,VWS V14.00,2013-02-04 12:00:00,
2013-02-04 07:20:00,30.7,21.1,30.08,NNE,22,0.0,0.0,67,0.00,,SKC,0.00,VWS V14.00,2013-02-04 12:20:00,
2013-02-04 07:40:00,31.1,21.8,30.07,NNE,22,0.0,0.0,68,0.00,,SKC,0.00,VWS V14.00,2013-02-04 12:40:00,
2013-02-04 08:00:00,31.1,22.1,30.09,NNE,22,0.0,0.0,69,0.00,,SKC,0.00,VWS V14.00,2013-02-04 13:00:00,
2013-02-04 08:20:00,31.1,22.5,30.09,NNE,22,0.0,0.0,70,0.00,,SKC,0.00,VWS V14.00,2013-02-04 13:20:00,
2013-02-04 08:40:00,31.8,23.5,30.10,East,90,0.0,0.0,71,0.00,,SKC,0.00,VWS V14.00,2013-02-04 13:40:00,
2013-02-04 09:00:00,32.4,24.0,30.11,East,90,0.0,0.0,71,0.00,,SKC,0.00,VWS V14.00,2013-02-04 14:00:00,
2013-02-04 09:20:00,33.3,25.2,30.11,East,90,0.0,0.0,72,0.00,,SKC,0.00,VWS V14.00,2013-02-04 14:20:00,
2013-02-04 09:40:00,33.6,25.6,30.10,East,90,0.0,0.0,72,0.00,,SKC,0.00,VWS V14.00,2013-02-04 14:40:00,
2013-02-04 10:00:00,34.3,26.3,30.10,SE,135,0.0,0.0,72,0.00,,SKC,0.00,VWS V14.00,2013-02-04 15:00:00,
2013-02-04 10:20:00,35.1,27.0,30.08,ENE,68,0.0,0.0,72,0.00,,SKC,0.00,VWS V14.00,2013-02-04 15:20:00,
2013-02-04 10:40:00,35.4,26.6,30.09,SSE,158,0.0,0.0,70,0.00,,SKC,0.00,VWS V14.00,2013-02-04 15:40:00,
2013-02-04 11:00:00,35.8,26.3,30.09,West,270,0.0,0.0,68,0.00,,SKC,0.00,VWS V14.00,2013-02-04 16:00:00,
2013-02-04 11:20:00,36.5,27.0,30.08,SW,225,0.0,0.0,68,0.00,,SKC,0.00,VWS V14.00,2013-02-04 16:20:00,
2013-02-04 11:40:00,37.2,26.5,30.07,West,270,0.0,0.0,65,0.00,,SKC,0.00,VWS V14.00,2013-02-04 16:40:00,
2013-02-04 12:00:00,37.9,26.9,30.06,WNW,292,0.0,0.0,64,0.00,,SKC,0.00,VWS V14.00,2013-02-04 17:00:00,
2013-02-04 12:20:00,38.3,26.4,30.06,WNW,292,0.0,0.0,62,0.00,,SKC,0.00,VWS V14.00,2013-02-04 17:20:00,
2013-02-04 12:40:00,39.6,27.2,30.06,South,180,2.9,2.9,61,0.00,,SKC,0.00,VWS V14.00,2013-02-04 17:40:00,
2013-02-04 13:00:00,40.8,27.2,30.04,SSW,202,0.0,8.3,58,0.00,,SKC,0.00,VWS V14.00,2013-02-04 18:00:00,
2013-02-04 13:20:00,41.9,26.9,30.03,SW,225,2.0,2.2,55,0.00,,SKC,0.00,VWS V14.00,2013-02-04 18:20:00,
2013-02-04 13:40:00,42.4,26.1,30.02,South,180,2.2,2.2,52,0.00,,SKC,0.00,VWS V14.00,2013-02-04 18:40:00,
2013-02-04 14:00:00,43.5,26.1,30.01,SW,225,2.9,6.5,50,0.00,,SKC,0.00,VWS V14.00,2013-02-04 19:00:00,
2013-02-04 14:20:00,44.4,25.5,29.99,South,180,3.8,6.5,47,0.00,,SKC,0.00,VWS V14.00,2013-02-04 19:20:00,
2013-02-04 14:40:00,46.2,26.1,29.99,SW,225,1.3,5.1,45,0.00,,SKC,0.00,VWS V14.00,2013-02-04 19:40:00,
2013-02-04 15:00:00,47.1,25.8,29.98,SSW,202,0.0,4.0,43,0.00,,SKC,0.00,VWS V14.00,2013-02-04 20:00:00,
2013-02-04 15:20:00,47.8,26.4,29.98,South,180,0.0,3.8,43,0.00,,SKC,0.00,VWS V14.00,2013-02-04 20:20:00,
2013-02-04 15:40:00,48.2,25.6,29.97,South,180,5.1,9.0,41,0.00,,SKC,0.00,VWS V14.00,2013-02-04 20:40:00,
2013-02-04 16:00:00,48.6,26.0,29.97,SSE,158,0.4,6.3,41,0.00,,SKC,0.00,VWS V14.00,2013-02-04 21:00:00,
2013-02-04 16:20:00,48.6,25.4,29.97,South,180,0.0,6.7,40,0.00,,SKC,0.00,VWS V14.00,2013-02-04 21:20:00,
2013-02-04 16:40:00,48.4,25.2,29.96,South,180,4.0,4.0,40,0.00,,SKC,0.00,VWS V14.00,2013-02-04 21:40:00,
2013-02-04 17:00:00,48.4,25.2,29.96,South,180,0.0,4.0,40,0.00,,SKC,0.00,VWS V14.00,2013-02-04 22:00:00,
2013-02-04 19:00:00,45.9,24.1,29.96,South,180,2.5,6.3,42,0.00,,SKC,0.00,VWS V14.00,2013-02-05 00:00:00,
2013-02-04 19:20:00,45.5,23.8,29.96,SSE,158,2.5,3.6,42,0.00,,SKC,0.00,VWS V14.00,2013-02-05 00:20:00,
2013-02-04 19:40:00,45.5,23.8,29.96,SE,135,5.6,8.7,42,0.00,,SKC,0.00,VWS V14.00,2013-02-05 00:40:00,
2013-02-04 20:00:00,45.5,24.3,29.96,South,180,0.0,9.0,43,0.00,,SKC,0.00,VWS V14.00,2013-02-05 01:00:00,
2013-02-04 20:20:00,45.3,25.2,29.96,SSE,158,6.9,8.3,45,0.00,,SKC,0.00,VWS V14.00,2013-02-05 01:20:00,
2013-02-04 20:40:00,45.0,24.9,29.97,SSE,158,0.0,7.2,45,0.00,,SKC,0.00,VWS V14.00,2013-02-05 01:40:00,
2013-02-04 21:00:00,44.6,25.1,29.96,SSE,158,0.0,10.3,46,0.00,,SKC,0.00,VWS V14.00,2013-02-05 02:00:00,
2013-02-04 21:20:00,44.4,25.0,29.96,SSE,158,4.9,7.2,46,0.00,,SKC,0.00,VWS V14.00,2013-02-05 02:20:00,
2013-02-04 21:40:00,44.2,25.3,29.95,SSE,158,0.0,7.6,47,0.00,,SKC,0.00,VWS V14.00,2013-02-05 02:40:00,
2013-02-04 22:00:00,44.2,25.8,29.96,South,180,1.3,7.4,48,0.00,,SKC,0.00,VWS V14.00,2013-02-05 03:00:00,
2013-02-04 22:20:00,44.1,25.6,29.96,SSE,158,0.0,5.4,48,0.00,,SKC,0.00,VWS V14.00,2013-02-05 03:20:00,
2013-02-04 22:40:00,44.1,25.6,29.96,SSE,158,0.0,0.0,48,0.00,,SKC,0.00,VWS V14.00,2013-02-05 03:40:00,
2013-02-04 23:00:00,43.7,25.8,29.95,South,180,0.0,0.0,49,0.00,,SKC,0.00,VWS V14.00,2013-02-05 04:00:00,
2013-02-04 23:20:00,43.7,25.8,29.95,South,180,0.0,1.3,49,0.00,,SKC,0.00,VWS V14.00,2013-02-05 04:20:00,
2013-02-04 23:40:00,43.3,26.0,29.95,South,180,0.0,0.0,50,0.00,,SKC,0.00,VWS V14.00,2013-02-05 04:40:00,